Wind_Speed
62 60 57 57 57 47 46 42 41 40 33 36 31 32 33 34 33 34 34 34 32 31 32 33 34 31 28 27 25 23 23 24
64 63 62 60 60 57 52 50 49 49 43 39 42 37 31 37 37 38 39 38 37 33 34 35 34 34 34 32 30 30 29 30
74 71 68 65 62 61 61 57 57 55 52 50 45 37 30 36 41 43 45 43 39 38 38 39 39 38 37 36 36 36 34 35
87 81 79 76 70 68 67 68 63 63 61 53 49 44 34 34 45 49 49 44 44 43 44 43 43 43 42 41 41 41 39 41
97 93 89 85 80 77 76 73 67 68 69 57 55 49 44 48 50 48 48 48 50 51 50 49 49 49 48 46 45 47 45 45
105 103 99 95 90 87 83 84 78 71 70 68 61 61 59 60 55 52 49 50 53 56 56 54 53 53 54 54 52 50 50 51
113 111 109 106 101 96 91 86 85 84 76 72 69 67 68 63 59 57 58 55 52 54 57 58 59 59 58 58 57 57 58 58
124 119 120 117 112 103 98 93 87 83 85 80 76 73 76 73 68 64 62 59 57 57 57 58 58 61 63 63 62 63 64 63
134 125 127 126 119 112 104 99 96 92 88 87 85 84 82 81 74 70 68 66 61 63 59 61 60 61 61 62 64 67 71 71
130 133 134 129 125 121 117 110 105 103 97 92 93 93 92 90 84 77 72 72 71 69 70 66 66 66 67 68 64 67 69 67
121 125 132 136 133 131 129 121 115 111 109 102 98 96 97 93 91 85 80 76 82 75 70 73 73 73 69 72 72 76 74 73
115 119 122 126 133 140 140 136 131 122 118 113 108 103 100 99 94 90 88 80 72 80 89 81 88 82 79 82 81 86 84 81
107 114 117 119 123 126 128 130 130 129 124 122 115 113 109 105 102 97 94 87 87 90 94 80 101 94 88 85 81 86 95 86
100 107 112 116 120 122 125 126 127 129 130 125 126 121 119 117 112 107 102 94 86 67 64 108 102 86 79 85 92 99 92 94
100 103 111 116 118 118 122 125 126 127 128 132 128 129 130 125 121 117 112 105 100 101 100 92 96 86 92 101 95 96 89 90
88 100 109 113 117 117 117 122 122 128 128 129 128 132 132 134 129 127 124 117 112 111 112 109 115 105 100 91 93 99 92 92
78 90 96 108 115 119 117 118 123 125 125 129 132 130 132 134 136 135 132 126 124 118 117 119 120 119 115 117 116 108 110 110
67 79 84 96 108 113 116 119 119 121 122 126 128 132 133 135 135 134 132 132 127 124 123 122 123 122 122 118 118 123 124 111
57 66 77 85 90 101 113 118 118 120 123 123 126 128 131 135 136 137 135 133 133 134 132 129 129 129 128 126 126 126 126 126
Wind_Direction
243 249 252 251 258 256 257 259 264 268 272 267 267 270 264 259 259 259 262 257 253 249 244 240 240 243 245 253 260 268 275 280
243 243 251 250 250 256 253 251 255 259 265 269 263 262 268 257 256 255 255 258 251 247 239 240 244 246 248 255 260 265 271 275
243 242 244 251 255 253 251 250 251 254 260 265 264 264 265 265 258 255 254 255 249 245 246 246 246 248 253 256 259 262 268 276
247 244 243 248 250 258 254 249 249 250 254 259 260 259 258 263 259 258 257 261 254 249 250 249 250 252 255 259 263 265 268 271
252 249 245 242 247 250 257 255 254 253 255 255 255 252 256 263 265 265 262 257 255 254 251 252 254 255 256 259 263 267 270 273
254 253 251 248 243 249 253 258 255 255 255 255 253 255 259 260 259 259 260 258 256 256 257 258 256 258 262 262 263 265 266 269
252 252 253 253 249 245 249 254 255 255 253 251 251 251 254 254 253 251 255 257 255 260 262 260 259 260 261 264 267 267 268 269
253 251 251 251 252 248 246 250 250 251 254 252 249 248 249 250 250 250 250 255 255 260 262 266 268 266 265 263 263 266 267 268
252 251 252 249 249 248 247 247 248 247 245 249 247 246 247 246 250 253 252 251 252 259 263 270 269 271 268 267 268 266 265 266
249 247 248 250 247 248 249 246 245 246 247 243 248 250 252 251 247 248 254 257 256 258 265 269 269 271 272 272 270 270 268 267
246 245 246 247 247 247 249 247 247 244 244 245 245 248 251 250 251 253 253 258 261 263 264 266 268 274 269 264 266 269 268 267
243 244 243 244 246 246 247 249 248 245 243 243 244 245 247 250 252 251 250 252 251 264 268 266 271 276 273 269 268 271 272 268
242 242 242 242 243 244 246 247 246 245 243 242 243 245 245 245 246 249 251 249 252 258 267 260 273 273 269 265 268 272 270 263
239 240 242 241 241 241 241 243 245 245 246 245 244 244 246 246 246 248 248 252 254 243 234 258 261 266 264 254 269 274 263 258
238 237 237 240 241 239 240 241 240 242 244 245 245 245 246 247 247 247 246 244 244 246 238 249 248 256 249 252 262 265 259 255
242 241 240 239 240 240 240 241 242 240 241 243 245 246 247 248 248 249 248 246 246 246 245 243 245 247 248 253 257 257 257 256
243 245 243 241 240 240 239 239 241 242 242 241 243 244 245 246 247 248 249 250 250 248 247 250 251 250 251 254 258 260 263 264
250 246 244 246 244 244 243 242 241 242 242 243 242 243 244 245 245 246 246 246 245 247 248 246 249 252 253 252 253 255 257 265
261 255 250 245 245 247 245 246 244 243 244 243 244 244 244 245 245 246 246 244 245 247 247 245 245 247 249 251 252 253 255 259
Height
10819 10818 10822 10826 10829 10836 10838 10840 10842 10844 10846 10846 10846 10847 10850 10851 10853 10854 10855 10856 10856 10857 10858 10859 10859 10860 10860 10861 10862 10863 10863 10863
10806 10809 10807 10812 10817 10823 10829 10830 10831 10835 10836 10837 10838 10839 10842 10843 10845 10847 10847 10848 10850 10850 10850 10851 10852 10854 10854 10855 10856 10857 10857 10857
10788 10793 10793 10797 10801 10810 10814 10819 10821 10823 10827 10827 10831 10835 10836 10836 10837 10836 10837 10840 10843 10843 10842 10843 10845 10846 10847 10849 10849 10849 10850 10849
10768 10776 10782 10785 10792 10792 10797 10801 10807 10809 10812 10819 10822 10826 10827 10828 10824 10826 10829 10835 10836 10835 10834 10836 10836 10837 10839 10840 10842 10842 10844 10843
10747 10754 10761 10772 10777 10779 10781 10789 10797 10799 10799 10809 10812 10814 10815 10814 10814 10817 10821 10824 10824 10824 10825 10827 10828 10829 10830 10831 10831 10832 10835 10834
10720 10731 10740 10750 10760 10765 10772 10772 10781 10788 10790 10796 10799 10803 10803 10799 10803 10805 10808 10810 10812 10812 10815 10818 10819 10820 10821 10823 10825 10826 10826 10826
10691 10704 10713 10719 10733 10748 10755 10759 10765 10767 10775 10779 10785 10788 10786 10787 10788 10789 10790 10795 10799 10801 10802 10806 10808 10810 10810 10812 10815 10815 10815 10816
10660 10676 10681 10690 10703 10721 10736 10742 10751 10748 10753 10761 10768 10770 10765 10768 10771 10774 10777 10781 10787 10789 10790 10794 10797 10797 10798 10800 10801 10800 10802 10804
10631 10645 10645 10657 10678 10690 10705 10718 10725 10726 10729 10736 10741 10743 10744 10749 10754 10763 10764 10768 10771 10772 10778 10783 10783 10783 10784 10785 10787 10786 10785 10785
10589 10608 10612 10621 10643 10657 10669 10686 10696 10699 10707 10715 10717 10722 10729 10734 10739 10744 10751 10754 10756 10758 10763 10766 10769 10771 10771 10772 10773 10771 10771 10771
10552 10566 10579 10596 10607 10621 10632 10650 10666 10676 10682 10692 10698 10701 10703 10712 10722 10733 10739 10741 10743 10742 10748 10751 10752 10756 10755 10756 10755 10752 10755 10757
10523 10534 10550 10564 10577 10589 10596 10615 10630 10646 10656 10665 10674 10681 10685 10689 10702 10715 10720 10725 10728 10731 10727 10728 10731 10737 10738 10737 10738 10738 10737 10738
10500 10507 10520 10535 10545 10557 10570 10582 10598 10609 10625 10637 10649 10656 10661 10668 10676 10684 10692 10706 10720 10724 10712 10711 10710 10718 10715 10713 10714 10719 10721 10723
10478 10486 10494 10502 10509 10524 10535 10549 10565 10582 10594 10609 10617 10628 10635 10642 10652 10664 10674 10685 10701 10694 10698 10701 10697 10700 10683 10683 10690 10692 10698 10705
10452 10459 10464 10468 10480 10497 10508 10519 10532 10543 10558 10570 10586 10598 10604 10613 10623 10634 10648 10657 10665 10669 10677 10677 10677 10677 10671 10666 10668 10671 10678 10686
10437 10436 10441 10451 10455 10469 10485 10492 10506 10516 10525 10534 10550 10560 10570 10580 10595 10605 10618 10627 10634 10637 10642 10645 10646 10655 10647 10646 10646 10650 10656 10663
10415 10414 10422 10427 10432 10438 10454 10465 10472 10481 10498 10506 10515 10527 10535 10543 10553 10570 10586 10601 10607 10612 10616 10619 10623 10629 10632 10634 10632 10633 10633 10639
10393 10393 10399 10404 10410 10419 10428 10436 10448 10457 10467 10475 10485 10491 10500 10511 10520 10531 10543 10559 10570 10578 10586 10593 10597 10602 10604 10605 10609 10613 10613 10607
10377 10376 10378 10382 10388 10395 10401 10409 10419 10428 10435 10445 10454 10463 10471 10476 10484 10495 10508 10518 10527 10538 10548 10558 10564 10565 10571 10577 10582 10586 10589 10593